Вернуться в каталог

SL-12 R/B(2)

АктивенGEO
NORAD 23330·ROCKET BODY·🇷🇺 Russia

Запущен Oct 31, 1994 с Baikonur Cosmodrome

Loading…

TLE

СвежийSource: Space-Track

Эпоха: Sep 14, 2026, 13:09 UTC

1 23330U 94069D   26257.54803976 -.00000035  00000-0  00000+0 0  9991
2 23330  14.4470 348.6432 0021427 159.7549 218.0846  1.00140206116550

Отслеживайте SL-12 R/B(2) в реальном времени с AllMySat

Download on the App Store